STARLINK-30286 (57647 NORAD) Tracking and Keplerian Element Data

This shows tracking and keplerian element data for the satellite.

Feedback or suggestion? Click here.




ElementValue
Catalog57647
NameSTARLINK-30286
Epoch Orbit273
Epoch Day238.91667824
Epoch Year2023
RAAN95.923
Inclination43.0013
Eccentricity0.000242
Argument of Perigee156.5762
Mean Anonmoly269.0637
Mean Motion15.86093445
Decay Rate-0.008974
L11 57647U 23122R 23238.91667824 -.00897400 00000+0 -38766-2 0 9991
L22 57647 43.0013 95.9230 0002420 156.5762 269.0637 15.86093445 2730



Live tracking and technical data element details for STARLINK-30286 (NORAD 57647). STARLINK-30286 can be tracked NOW for your location showing map with azimuth and elevation plus other details from your city location.







IsCatalogInMostPopularTable: catalog: 57647, numindb: 9
Update: records affected: 1



GetName: 57647 STARLINK-30286

Hit Count: updated at: Tue, 26 Sep 2023 13:35:07 GMT